Temperature
17 16 15 14 14 14 13 13 12 12 12 12 12 12 12 12 12 12 13 13 13 14 14 14 14 15 15 15 16 16 16 16 16 16 16 16 17 17 17 17 18 18 18
17 16 15 15 14 14 13 13 12 12 12 12 12 12 12 12 12 12 12 13 13 13 14 14 14 14 15 15 15 15 16 16 16 16 16 16 16 17 17 17 17 18 18
17 16 15 15 14 14 13 13 12 12 12 12 11 11 12 12 12 12 12 12 13 13 13 14 14 14 14 14 15 15 15 15 16 16 16 16 16 17 17 17 17 18 18
16 16 15 15 14 14 13 13 12 12 11 11 11 11 11 12 11 12 12 12 12 13 13 13 14 14 14 14 14 15 15 15 15 15 15 16 16 16 17 17 17 18 18
16 16 15 14 14 13 13 12 12 12 11 11 11 11 11 11 11 11 12 12 12 12 13 13 13 13 14 14 14 14 15 15 15 15 15 15 15 16 16 16 17 17 17
16 15 15 14 14 13 13 12 12 11 11 11 11 11 11 11 11 11 11 12 12 12 12 12 13 13 13 13 14 14 14 15 15 15 15 15 15 15 15 16 16 17 17
16 16 15 15 14 13 13 12 12 12 11 11 11 11 11 11 11 11 11 11 12 12 12 12 12 13 13 13 13 14 14 14 14 15 15 15 15 15 15 15 16 16 16
16 16 15 15 14 14 13 13 12 12 11 11 11 11 11 11 11 11 11 11 11 11 12 12 12 12 13 13 13 14 14 14 14 14 15 15 15 15 15 15 15 15 15
16 16 15 15 14 14 13 13 12 12 11 11 11 11 11 11 11 11 11 11 11 11 11 11 11 12 12 12 13 13 13 14 14 14 14 14 15 15 15 15 15 15 15
17 16 16 15 15 14 14 13 13 12 12 11 11 11 11 10 10 10 10 10 10 10 11 11 11 11 12 12 12 12 13 13 14 14 14 14 14 15 15 15 15 15 15
17 16 16 15 15 14 14 13 13 12 12 11 11 11 11 10 10 10 10 10 10 10 10 11 11 11 11 11 12 12 12 13 13 13 14 14 14 14 14 14 14 14 14
17 16 16 15 15 14 14 14 13 13 12 12 11 11 10 10 10 10 10 10 10 10 10 10 10 11 11 11 11 12 12 12 12 13 13 13 14 14 14 14 14 14 14
17 16 16 15 15 15 14 14 13 13 12 12 11 11 11 10 10 10 10 10 10 10 10 10 10 10 10 11 11 11 11 12 12 12 13 13 13 14 14 14 14 14 14
17 17 16 16 15 15 14 14 13 13 12 12 11 11 11 10 10 10 10 10 10 10 10 10 10 10 10 10 11 11 11 11 12 12 12 13 13 13 13 13 13 14 14
17 17 16 16 16 15 15 14 14 13 13 12 12 11 11 10 10 10 10 10 10 10 10 10 10 10 10 10 10 11 11 11 11 12 12 12 13 13 13 13 13 13 13
18 17 17 16 16 16 15 14 14 13 13 12 12 11 11 10 10 10 10 10 10 10 10 10 10 10 10 10 10 10 11 11 11 11 12 12 12 13 13 13 13 13 13
18 17 17 17 16 16 15 15 14 14 13 12 12 11 11 11 10 10 10 10 10 10 10 10 10 10 10 10 10 10 10 10 11 11 11 12 12 12 12 13 13 13 13
18 17 17 17 16 16 15 15 14 14 13 13 12 12 11 11 11 10 10 10 10 10 10 10 10 10 10 10 10 10 10 10 11 11 11 12 12 12 12 12 13 13 13
18 17 17 17 16 16 15 15 15 14 14 13 13 12 12 11 11 10 10 10 10 10 10 10 10 10 10 10 10 10 10 10 10 11 11 11 11 12 12 12 12 13 13
18 17 17 17 16 16 16 15 15 15 14 13 13 12 12 12 11 11 11 11 10 10 10 10 10 10 10 10 10 10 10 10 10 11 11 11 11 11 12 12 12 12 13
18 18 17 17 16 16 16 15 15 15 14 14 14 13 13 12 12 11 11 11 11 10 10 10 10 10 10 10 10 10 10 10 10 10 11 11 11 11 11 12 12 12 12
18 18 17 17 17 16 16 16 16 15 15 15 14 14 13 13 12 12 12 11 11 11 10 10 10 10 10 10 10 10 10 10 10 10 11 11 11 11 11 12 12 12 12
18 18 18 17 17 17 17 16 16 15 15 15 15 14 14 13 13 13 12 12 11 11 11 11 10 10 10 10 10 10 10 10 10 10 11 11 11 11 12 12 12 12 12
18 18 18 17 17 17 17 17 16 16 15 15 15 15 14 14 13 13 13 12 12 11 11 11 11 10 10 10 10 10 10 10 10 10 11 11 11 11 11 12 12 12 12
18 18 18 18 17 17 17 16 16 16 16 15 15 15 14 14 14 14 14 13 13 12 12 11 11 11 11 10 10 10 10 10 10 10 10 11 11 11 11 11 12 12 12
17 17 17 17 17 16 16 16 16 16 16 15 15 15 15 15 14 14 14 14 14 13 13 12 12 11 11 11 11 11 11 11 11 11 10 11 11 11 11 11 11 12 12
Wind_Speed
4 5 6 7 8 8 9 9 10 10 9 8 8 7 7 6 6 6 7 8 8 8 8 7 7 7 7 7 8 8 9 8 6 5 6 7 8 10 9 10 10 11 11
5 5 6 7 7 8 8 9 9 9 9 7 7 7 7 6 6 6 7 7 7 7 7 7 7 7 7 8 9 9 7 7 8 6 5 6 7 9 11 10 10 12 10
6 6 7 7 7 7 8 8 9 9 8 8 7 7 6 6 5 7 7 8 8 7 7 7 7 7 8 8 8 9 10 9 9 9 6 5 7 5 7 11 12 12 10
5 5 6 7 7 7 7 8 8 8 8 8 7 8 7 7 8 7 7 8 8 8 7 7 7 7 7 8 9 9 9 9 8 8 9 8 4 4 5 6 11 13 13
4 4 5 6 7 7 6 7 7 7 8 7 7 7 7 7 7 8 9 8 7 7 7 7 6 7 7 8 8 9 9 9 9 8 7 8 6 7 5 6 7 9 11
4 4 4 5 6 5 5 5 6 6 7 7 7 7 8 8 9 9 9 8 7 6 8 7 6 7 6 7 8 9 10 10 10 9 9 8 7 8 7 7 7 7 8
4 4 5 5 5 5 5 5 5 6 6 7 7 7 8 8 8 9 8 8 7 7 9 8 7 6 6 7 7 8 9 10 11 10 10 10 10 8 8 8 6 6 5
4 4 5 5 5 5 5 5 5 6 6 7 7 7 7 7 7 8 8 8 7 8 10 9 8 7 7 7 6 7 8 8 10 11 11 9 10 9 9 9 8 6 7
5 5 5 5 5 5 5 5 5 5 6 6 7 7 7 7 8 8 8 7 7 8 9 9 8 7 7 7 6 5 7 7 8 9 10 9 9 9 9 9 9 8 8
6 5 5 5 5 5 5 5 5 5 5 6 6 6 7 7 7 8 8 9 9 9 9 9 8 7 7 6 5 5 5 6 7 6 8 9 8 8 8 9 9 10 9
6 6 5 5 5 5 5 5 4 4 5 5 6 6 6 7 7 7 8 8 8 9 9 9 8 8 7 7 6 6 5 5 5 5 7 8 8 7 7 8 9 9 9
6 6 6 5 5 5 5 5 5 4 4 5 5 5 6 6 7 7 8 8 8 8 9 9 8 8 8 7 7 6 6 6 5 5 6 6 6 8 7 7 9 9 10
7 7 6 6 6 5 5 5 5 5 4 4 5 5 6 6 7 8 8 8 8 9 9 9 9 8 8 8 7 7 6 6 5 5 6 6 6 7 6 7 8 8 9
8 7 6 6 5 5 5 5 5 4 4 4 5 5 6 6 7 7 8 8 8 8 9 9 9 9 8 8 8 8 7 6 5 5 5 6 6 6 7 7 8 8 8
9 8 7 6 6 5 5 5 5 4 5 5 5 5 5 6 6 7 7 8 8 8 9 9 8 8 7 7 9 9 8 7 6 5 5 5 5 6 6 6 6 7 7
9 8 8 7 6 6 5 4 4 4 4 5 5 4 5 5 6 7 7 8 8 8 9 9 8 8 7 9 11 10 8 7 6 5 5 5 5 5 7 8 8 8 9
8 8 8 7 6 5 4 4 4 3 4 5 4 4 4 5 6 6 7 7 7 8 8 9 8 8 8 9 11 12 10 7 6 6 5 5 4 5 5 6 8 10 10
8 8 7 7 6 5 5 4 4 4 4 4 4 4 4 5 5 6 7 8 8 8 8 8 8 8 8 9 11 13 9 7 6 5 5 5 5 4 5 5 5 6 7
6 6 6 6 6 5 5 5 5 5 5 5 5 5 5 5 6 6 7 7 7 8 8 8 8 8 8 9 11 12 7 6 6 5 5 5 5 4 5 5 4 4 4
5 6 6 6 6 6 5 6 6 6 6 6 6 5 5 6 6 7 7 7 7 7 7 7 7 7 7 8 10 12 6 6 6 5 4 3 5 6 5 4 3 3 3
4 6 6 7 7 6 7 8 8 7 6 5 6 6 6 7 7 7 7 7 7 7 7 7 6 6 6 6 7 9 6 6 6 5 4 4 6 5 4 4 3 2 2
3 5 6 7 7 7 8 9 9 8 7 6 7 8 8 7 7 7 8 8 7 8 7 7 6 5 4 3 5 8 7 8 6 5 5 4 6 5 4 2 1 3 3
3 4 6 7 7 7 8 10 10 8 7 8 9 9 9 8 8 8 8 8 7 7 7 6 6 5 5 3 3 5 5 6 5 4 5 6 5 3 1 2 2 3 3
3 3 5 6 7 7 8 10 10 8 9 10 10 10 10 10 9 7 7 7 7 7 7 6 6 6 5 4 4 5 4 3 3 3 2 2 2 1 2 2 2 2 2
4 3 4 5 7 7 7 8 8 9 11 12 11 11 10 10 9 9 8 9 8 7 7 7 6 6 6 4 4 6 6 6 5 6 3 1 0 0 1 2 2 3 3
6 5 5 6 6 6 7 7 7 8 10 11 11 10 9 8 9 9 9 11 12 9 10 11 10 7 7 5 6 7 8 8 8 6 3 2 1 1 1 2 3 3 4
Wind_Direction
330 343 341 342 340 344 346 348 346 348 347 346 342 339 338 334 334 329 328 318 308 300 288 280 273 261 254 248 242 237 230 224 216 224 231 231 233 236 231 234 232 225 218
314 335 337 343 341 344 346 346 350 349 349 347 336 330 329 326 332 332 331 329 319 309 296 284 276 266 259 253 247 238 234 227 209 209 213 224 224 231 229 225 229 230 214
308 328 337 339 340 343 345 346 347 346 349 344 340 337 336 329 343 343 340 335 327 317 304 293 283 272 261 252 245 239 232 228 217 214 210 213 219 210 219 221 221 227 220
286 311 325 334 338 341 341 341 346 346 347 342 345 345 342 342 339 335 334 331 330 327 320 305 291 279 266 258 249 241 240 235 226 219 224 233 232 208 208 216 223 223 221
272 296 316 326 329 333 333 336 340 347 350 347 345 338 343 341 335 336 338 336 335 334 332 322 307 293 275 265 258 249 241 237 232 223 218 222 226 229 225 213 210 217 221
254 278 300 312 321 323 325 330 335 344 348 345 343 344 344 340 340 342 342 339 337 337 341 329 317 304 290 273 262 254 245 240 237 232 223 216 211 213 216 222 214 212 215
253 273 291 307 319 322 321 324 330 335 342 343 345 345 343 338 341 341 341 339 339 340 340 335 324 314 303 288 271 259 252 245 240 236 232 228 226 222 216 218 217 219 217
249 268 283 295 302 309 311 318 324 328 335 337 343 344 343 338 340 340 336 336 335 334 336 334 329 323 313 303 285 266 256 250 246 243 238 234 231 224 220 218 212 213 215
244 261 277 286 293 299 301 305 313 322 331 335 338 340 343 341 340 337 336 338 337 334 335 332 329 330 327 316 306 284 268 256 251 248 243 236 233 226 224 222 215 213 218
243 257 271 279 289 295 291 290 297 311 323 329 334 337 336 339 338 335 342 340 338 339 334 335 332 333 332 325 314 301 293 273 256 249 244 237 234 227 223 220 220 221 223
240 254 268 278 285 286 280 277 283 298 315 324 332 331 337 336 335 339 340 337 338 338 337 337 338 339 337 332 324 314 307 295 280 262 250 241 235 227 223 221 222 222 222
238 248 262 272 276 284 284 280 281 290 301 314 322 328 331 333 336 341 341 339 340 339 337 339 340 343 340 336 329 322 314 303 295 283 264 253 239 230 224 222 223 221 220
233 243 251 264 273 280 280 278 276 281 288 298 311 319 330 339 338 338 339 336 336 336 337 339 340 340 338 335 332 325 315 306 298 289 277 265 251 239 231 227 225 221 221
230 238 248 257 265 273 276 278 277 276 277 285 298 312 326 334 333 336 334 334 336 335 335 336 336 335 334 335 335 329 319 313 304 294 285 275 260 250 240 233 230 224 219
230 235 244 254 261 266 270 273 275 274 272 280 291 308 319 327 329 331 331 333 334 332 335 333 333 335 334 344 340 330 322 317 310 299 289 281 277 278 262 246 232 226 220
230 233 240 247 256 263 270 274 271 271 270 280 291 304 309 320 324 329 333 333 332 333 335 332 332 333 340 347 337 329 320 315 311 305 297 283 258 262 260 253 241 233 224
232 232 236 240 249 260 269 273 275 274 269 278 284 290 303 315 322 327 332 331 330 334 333 332 332 330 345 347 336 333 320 314 313 309 304 298 284 271 267 250 234 229 223
231 228 230 231 238 244 247 256 257 262 269 275 276 279 289 303 312 318 323 326 331 333 329 329 330 328 337 346 337 330 317 316 315 312 307 298 293 289 294 276 252 233 218
231 226 227 228 234 239 244 247 252 257 263 268 272 271 275 290 301 309 315 322 324 326 328 329 326 326 335 355 341 331 321 320 323 324 322 317 311 332 308 276 253 233 215
228 223 220 227 234 235 236 247 257 261 263 264 266 267 270 278 287 298 306 312 312 315 319 321 321 325 327 349 342 335 325 327 327 323 323 342 333 328 307 272 243 221 204
230 223 224 230 237 235 233 246 257 263 266 261 260 260 261 266 277 287 292 296 303 308 314 318 319 322 327 332 342 341 333 332 324 324 329 344 348 327 318 293 258 214 185
231 227 232 237 239 235 237 249 257 264 261 252 253 256 259 263 269 272 282 290 295 298 305 313 323 324 327 335 343 340 337 330 322 324 330 344 349 334 327 319 114 138 154
260 241 244 251 249 239 239 253 261 262 255 251 253 257 260 260 262 268 274 281 283 288 301 309 316 325 328 318 276 299 312 319 319 327 337 336 336 318 313 90 121 152 154
320 283 262 261 263 259 248 254 265 264 258 258 260 260 261 262 262 260 266 272 278 282 290 299 305 312 313 317 328 324 317 298 304 322 323 317 352 13 69 121 143 145 144
357 335 304 294 294 292 279 274 273 267 263 263 263 262 261 263 266 261 256 262 265 267 273 287 293 298 302 338 339 315 320 328 332 321 300 302 282 119 125 131 123 125 134
16 9 357 338 327 323 316 312 300 281 271 270 270 267 264 259 259 263 261 233 239 243 234 245 264 271 264 281 280 285 296 301 303 298 283 279 232 189 160 147 138 140 145
Height
1559 1558 1556 1554 1552 1549 1547 1544 1541 1538 1534 1531 1528 1525 1523 1521 1519 1516 1514 1513 1512 1511 1511 1511 1512 1512 1512 1513 1514 1516 1518 1519 1522 1524 1526 1528 1530 1532 1535 1537 1540 1542 1544
1557 1556 1555 1553 1551 1548 1546 1543 1540 1537 1533 1530 1527 1524 1522 1519 1517 1515 1512 1511 1509 1508 1508 1507 1507 1508 1508 1508 1510 1511 1513 1515 1517 1519 1522 1524 1526 1527 1530 1532 1535 1538 1540
1555 1554 1553 1552 1550 1547 1545 1542 1539 1536 1533 1529 1527 1524 1521 1519 1517 1514 1511 1509 1507 1505 1504 1504 1503 1503 1504 1505 1505 1507 1508 1510 1512 1514 1517 1518 1519 1521 1524 1527 1530 1533 1535
1554 1553 1552 1550 1549 1546 1544 1541 1538 1535 1532 1529 1526 1524 1521 1518 1515 1512 1510 1507 1505 1503 1501 1500 1500 1499 1500 1500 1501 1502 1503 1505 1507 1509 1511 1514 1515 1517 1519 1522 1524 1528 1531
1552 1551 1550 1549 1547 1545 1542 1540 1537 1534 1531 1528 1525 1523 1520 1518 1515 1512 1509 1506 1503 1501 1499 1498 1496 1496 1496 1496 1496 1497 1498 1500 1501 1503 1505 1508 1510 1512 1515 1516 1519 1521 1525
1550 1549 1549 1548 1546 1544 1541 1539 1536 1533 1530 1527 1525 1523 1520 1517 1514 1511 1508 1505 1502 1500 1498 1496 1494 1493 1492 1492 1492 1493 1494 1495 1497 1498 1500 1502 1504 1506 1509 1511 1513 1515 1519
1548 1548 1547 1546 1544 1542 1540 1538 1535 1533 1530 1527 1525 1522 1519 1516 1513 1510 1507 1504 1501 1499 1496 1494 1492 1491 1489 1489 1488 1489 1490 1491 1492 1493 1495 1496 1498 1501 1503 1506 1508 1510 1513
1546 1546 1545 1544 1543 1541 1539 1537 1534 1532 1529 1527 1524 1521 1518 1516 1513 1509 1506 1504 1501 1497 1495 1492 1490 1488 1487 1486 1485 1485 1485 1486 1487 1488 1489 1491 1492 1495 1497 1500 1503 1505 1508
1544 1544 1543 1542 1541 1539 1538 1535 1533 1531 1529 1526 1523 1521 1518 1515 1512 1509 1506 1503 1500 1496 1493 1491 1489 1487 1485 1483 1482 1482 1482 1482 1482 1483 1484 1485 1487 1489 1491 1493 1496 1500 1501
1541 1542 1541 1541 1539 1538 1536 1534 1532 1530 1528 1525 1522 1519 1517 1514 1510 1508 1505 1502 1499 1495 1493 1490 1488 1486 1484 1482 1480 1479 1478 1478 1478 1478 1479 1480 1482 1483 1485 1487 1490 1493 1496
1539 1539 1539 1539 1537 1536 1534 1533 1531 1529 1527 1524 1522 1519 1516 1513 1510 1507 1504 1501 1498 1495 1492 1489 1487 1485 1483 1481 1479 1477 1476 1475 1475 1475 1475 1476 1477 1478 1480 1482 1484 1486 1489
1536 1537 1537 1536 1535 1534 1533 1531 1529 1528 1525 1523 1520 1518 1515 1512 1509 1506 1503 1500 1497 1494 1491 1489 1486 1484 1481 1479 1477 1475 1474 1473 1472 1472 1472 1472 1473 1473 1475 1477 1478 1480 1483
1534 1534 1534 1534 1533 1532 1531 1529 1528 1526 1524 1521 1519 1517 1514 1511 1508 1505 1502 1499 1496 1493 1491 1488 1485 1482 1480 1478 1476 1474 1472 1471 1470 1469 1469 1469 1469 1470 1471 1472 1473 1475 1477
1531 1531 1532 1531 1531 1530 1529 1527 1526 1524 1522 1520 1517 1515 1513 1510 1507 1504 1501 1498 1495 1493 1490 1487 1484 1481 1479 1476 1474 1472 1471 1469 1468 1467 1466 1466 1466 1466 1467 1468 1469 1470 1472
1528 1528 1529 1529 1528 1528 1527 1525 1524 1522 1520 1518 1516 1514 1512 1509 1506 1503 1500 1497 1494 1491 1489 1486 1483 1480 1477 1475 1472 1470 1469 1467 1465 1464 1463 1463 1463 1463 1463 1464 1465 1466 1468
1524 1525 1526 1526 1526 1526 1525 1524 1522 1520 1518 1517 1515 1512 1510 1507 1505 1502 1499 1496 1493 1490 1487 1484 1481 1478 1476 1473 1470 1468 1467 1465 1463 1462 1461 1460 1460 1460 1460 1461 1461 1462 1463
1521 1522 1523 1523 1523 1523 1523 1521 1520 1518 1517 1515 1513 1511 1509 1506 1504 1501 1498 1495 1492 1489 1486 1483 1480 1477 1474 1471 1469 1467 1465 1463 1461 1459 1458 1457 1457 1457 1457 1457 1457 1458 1459
1518 1519 1520 1521 1521 1521 1520 1519 1518 1517 1515 1513 1511 1509 1507 1505 1503 1500 1497 1494 1492 1488 1485 1482 1479 1476 1473 1470 1467 1465 1463 1461 1459 1458 1456 1455 1455 1455 1454 1454 1454 1454 1455
1515 1516 1517 1518 1519 1519 1518 1518 1517 1515 1514 1512 1510 1508 1506 1504 1501 1499 1497 1494 1490 1487 1484 1481 1477 1474 1472 1469 1466 1464 1462 1460 1458 1456 1455 1454 1453 1452 1451 1451 1451 1451 1452
1513 1514 1514 1515 1516 1516 1516 1515 1515 1514 1512 1510 1508 1507 1504 1502 1500 1498 1495 1492 1489 1486 1483 1480 1476 1473 1471 1468 1465 1463 1461 1459 1457 1455 1454 1452 1451 1450 1450 1449 1449 1449 1449
1511 1511 1512 1513 1513 1514 1513 1513 1512 1512 1510 1508 1506 1504 1502 1500 1498 1496 1493 1491 1488 1485 1482 1479 1476 1473 1470 1467 1465 1462 1460 1458 1456 1455 1453 1452 1450 1449 1448 1448 1448 1448 1449
1509 1509 1510 1510 1510 1510 1510 1510 1509 1509 1507 1505 1504 1502 1500 1498 1496 1494 1491 1489 1487 1484 1482 1479 1476 1473 1470 1467 1464 1462 1460 1458 1456 1454 1453 1451 1450 1448 1448 1448 1448 1448 1449
1507 1507 1507 1508 1508 1507 1507 1507 1506 1505 1504 1502 1501 1499 1498 1496 1494 1491 1489 1487 1485 1483 1480 1478 1475 1472 1469 1466 1464 1461 1460 1458 1456 1454 1453 1451 1450 1449 1448 1448 1448 1449 1449
1505 1505 1505 1505 1505 1505 1504 1503 1503 1501 1500 1499 1498 1496 1495 1493 1491 1489 1487 1485 1483 1481 1479 1476 1474 1471 1469 1466 1464 1462 1460 1458 1456 1454 1453 1451 1450 1449 1449 1449 1449 1450 1451
1503 1502 1502 1502 1501 1501 1500 1499 1498 1497 1496 1495 1494 1493 1491 1490 1488 1486 1484 1482 1480 1478 1476 1474 1472 1470 1468 1465 1463 1461 1459 1457 1456 1454 1453 1452 1451 1450 1449 1449 1450 1451 1452
1501 1500 1499 1499 1498 1497 1496 1495 1493 1492 1491 1490 1490 1488 1487 1485 1483 1482 1480 1478 1476 1474 1472 1471 1469 1467 1465 1463 1461 1460 1458 1456 1455 1454 1453 1452 1451 1450 1450 1450 1451 1451 1453